Location: Hopville
(44.8032°N, 123.1329°W)
Time: 16:03:11
(UTC+00:00)

Daily predictions for brighter satellites

Satellite Brightness Start Highest point End
(mag) Time Altitude Azimuth Time Altitude Azimuth Time Altitude Azimuth
USA 215 4.2 12:14:13 10° NE 12:18:40 37° NNE 12:18:40 37° NNE
NOSS 0 Rocket 4.5 12:35:31 47° SSE 12:36:41 54° ESE 12:42:41 10° NE
Cosmos 2278 Rocket 2.4 12:45:40 66° ENE 12:45:40 66° ENE 12:51:16 10° SE
Cosmos 44 Rocket 4.1 12:47:11 50° ESE 12:47:11 50° ESE 12:51:06 10° SE
CZ-2C R/B 3.7 12:52:44 16° SSE 12:52:44 16° SSE 12:54:21 10° SE
Lacrosse 5 rocket 3.2 12:53:52 26° ESE 12:53:52 26° ESE 12:55:39 10° ESE
Cosmos 841 Rocket 4.2 12:50:43 35° SSE 12:52:23 49° ESE 12:57:21 10° NNE
ADEOS 3.9 12:49:23 10° NNE 12:54:35 63° ESE 12:56:42 35° S
Cosmos 2237 Rocket 2.7 12:52:45 33° S 12:55:07 56° ESE 13:00:42 10° NNE
Cosmos 2219 Rocket 3.4 12:57:46 29° N 12:57:46 29° N 13:00:36 10° NNE
Cosmos 2333 Rocket 3.5 13:09:56 26° N 13:09:56 26° N 13:12:51 10° NNE
CZ-4B R/B 4.4 13:04:51 10° NNE 13:08:09 31° E 13:11:31 10° SSE
Meteor 2-10 4.3 13:11:34 57° NNW 13:11:34 57° NNW 13:16:00 10° N
Cosmos 1513 Rocket 4.4 13:04:35 10° S 13:10:54 87° W 13:17:09 10° N
SKYMED 2 3.9 13:07:09 10° SSE 13:11:25 62° ENE 13:12:06 54° NNE
SL-4 R/B 3.2 13:11:48 35° SE 13:11:48 35° SE 13:15:13 10° ENE
Atlas Centaur 2 4.2 13:10:54 22° SSW 13:13:41 27° S 13:20:21 10° ESE
Cosmos 1908 4.2 13:15:05 10° SSE 13:18:43 45° E 13:22:23 10° NNE
Cosmos 1891 Rocket 4.3 13:15:23 10° SSW 13:21:32 71° W 13:27:37 10° N
Cosmos 1570 Rocket 4.1 13:16:48 11° SSW 13:21:44 74° ESE 13:26:59 10° NNE
CZ-4B R/B 4.2 13:19:34 10° SSE 13:19:48 12° SSE 13:19:48 12° SSE
Cosmos 372 Rocket 4.2 13:20:08 27° N 13:23:00 71° ENE 13:28:12 10° SSE
MOS 1 Rocket 3.7 13:19:50 10° SSE 13:24:42 63° ENE 13:29:19 10° N
Cosmos 1464 Rocket 3.8 13:19:54 10° SSW 13:26:01 72° W 13:32:11 10° N
Cosmos 2360 Rocket 4.3 13:30:10 12° NNW 13:30:10 12° NNW 13:30:58 10° N
COSMOS 2428 3.6 13:29:35 32° NNW 13:29:35 32° NNW 13:33:36 10° NNE
FENGYUN 3A 4.5 13:23:19 10° N 13:26:43 34° NNW 13:26:43 34° NNW
Lacrosse 4 Rocket 2.5 13:25:00 11° S 13:28:48 45° ESE 13:32:57 10° NE
Cosmos 1980 3.5 13:26:22 36° SW 13:28:48 77° WNW 13:34:29 10° NNE
BREEZE M DEB (TANK) 4.3 13:32:47 11° SSE 13:32:47 11° SSE 13:32:52 10° SSE
Cosmos 1340 3.1 13:29:53 34° NNE 13:31:17 59° ENE 13:34:59 10° SSE
Cosmos 1937 Rocket 3.6 13:31:34 52° WSW 13:31:34 52° WSW 13:36:28 10° S
Cosmos 1072 Rocket 4.4 13:26:22 10° SSW 13:32:28 60° WNW 13:38:44 10° N
Cosmos 1602 Rocket 4.1 13:30:29 10° N 13:34:54 59° E 13:39:19 10° SSE
Cosmos 1814 Rocket 3.9 13:31:05 10° SSW 13:36:13 87° ESE 13:41:23 10° NNE
Envisat 4.1 13:34:34 10° NNE 13:39:28 45° E 13:44:19 10° S
Cosmos 1953 3.1 13:42:48 36° NNW 13:42:48 36° NNW 13:45:19 10° N
Cosmos 2208 Rocket 4.0 13:40:39 10° SSW 13:46:06 85° WNW 13:51:33 10° NNE
Cosmos 540 Rocket 3.5 13:46:00 34° WSW 13:47:52 51° WNW 13:52:54 10° NNE
Cosmos 1689 Rocket 2.3 13:45:41 10° SSE 13:48:33 66° ENE 13:48:59 55° NNE
YAOGAN 6 3.5 13:47:46 10° NNE 13:51:24 52° E 13:55:00 10° S
Cosmos 1092 Rocket 4.0 13:45:48 10° N 13:51:59 81° E 13:58:10 10° S
Cosmos 2084 Rocket 4.0 13:51:56 24° NNW 13:54:23 59° NE 13:58:51 10° SE
Meteor 2-13 Rocket 4.5 13:50:18 10° NNW 13:56:19 57° W 14:02:17 10° S
COSMO-SKYMED 1 2.9 13:55:28 10° SSW 13:59:33 40° W 14:00:44 33° WNW
BREEZE-M (TANK) 1.7 14:00:31 51° SSE 14:00:31 51° SSE 14:02:06 10° SE
ATLAS CENTAUR R/B 0.9 13:58:52 18° SW 14:01:29 89° ESE 14:05:10 10° NE
Cosmos 1315 Rocket 4.3 13:58:32 10° SSE 14:02:10 39° E 14:05:51 10° NNE
USA 215 4.3 13:56:52 10° NE 14:02:22 30° N 14:06:01 18° NW
Meteor 1-16 Rocket 4.3 13:58:55 10° SSW 14:04:45 60° WNW 14:10:38 10° N
Cosmos 1703 3.3 14:02:44 22° NNW 14:05:00 52° W 14:08:47 10° S
Nadezhda 4 Rocket 4.1 13:59:21 10° NNW 14:05:13 50° W 14:11:04 10° SSW
H-2A R/B 2.5 14:01:42 10° N 14:05:23 66° WNW 14:09:06 10° SSW
Cosmos 2034 Rocket 4.1 13:59:40 10° SSW 14:05:51 51° WNW 14:12:03 10° N
SJ-7 4.4 14:02:32 10° NNE 14:06:43 86° ESE 14:10:48 10° SSW
Cosmos 1544 Rocket 4.3 14:12:18 27° W 14:12:57 28° WNW 14:16:42 10° NNW
USA 307 2.8 14:13:33 15° SW 14:17:01 90° SE 14:21:16 10° NE
Cosmos 1634 Rocket 3.9 14:12:29 10° S 14:18:39 86° W 14:24:53 10° N
Cosmos 1346 Rocket 2.8 14:15:15 10° N 14:19:15 87° E 14:23:14 10° S
H-2A R/B 3.5 14:15:48 10° NNE 14:20:14 54° E 14:24:38 10° S
GEOS 3 Rocket 3.7 14:15:17 10° SSE 14:20:36 65° SW 14:25:27 13° NW
FALCON 9 DEB 4.3 14:19:41 24° NW 14:20:37 28° NNW 14:23:37 10° NE
ERS-2 3.0 14:17:34 10° SSW 14:20:44 28° W 14:21:47 24° WNW
Cosmos 2228 3.3 14:16:37 10° S 14:20:50 71° E 14:25:04 10° NNE
Cosmos 1943 Rocket 2.6 14:15:50 10° NNW 14:21:29 65° ENE 14:27:07 10° SE
Cosmos 2369 Rocket 3.4 14:16:21 10° NNW 14:21:38 40° NE 14:26:52 10° SE
CZ-2C R/B 2.9 14:19:09 10° SSE 14:24:21 72° ENE 14:29:43 10° N
USA 305 2.8 14:20:58 14° WSW 14:24:36 78° NW 14:28:52 10° NE
Cosmos 1606 Rocket 3.8 14:21:32 10° S 14:25:49 72° E 14:30:08 10° NNE
USA 308 2.8 14:22:00 12° WSW 14:25:54 80° NNW 14:30:11 10° NE
Meteor PRIRODA 4.4 14:23:09 10° N 14:26:19 29° WNW 14:29:29 10° SW
NOSS 3-2 (A) 3.3 14:21:48 10° SW 14:27:26 77° NW 14:33:58 10° NE
Cosmos 1300 2.6 14:24:10 10° S 14:27:58 81° W 14:31:48 10° N
Spot 2 4.0 14:24:41 10° NNE 14:28:44 80° ESE 14:32:50 10° SSW
SL-16 R/B 2.1 14:23:23 10° SSW 14:29:02 75° WNW 14:34:44 10° NNE
Cosmos 2278 Rocket 3.5 14:27:35 18° WNW 14:29:08 20° W 14:33:05 10° SW
CZ-2C R/B 3.3 14:27:16 10° SW 14:30:22 20° S 14:33:20 10° SE
Lacrosse 5 rocket 2.6 14:29:31 18° W 14:30:45 21° SW 14:33:35 10° S
CZ-4B R/B 4.1 14:26:56 10° NNE 14:32:31 56° E 14:37:58 10° S
Cosmos 841 Rocket 4.5 14:30:56 12° WSW 14:34:32 24° NW 14:38:43 10° N
USA 306 2.9 14:32:34 10° WSW 14:36:42 66° NNW 14:40:56 10° NE
BREEZE-M DEB (TANK) 3.1 14:33:51 12° WSW 14:36:53 85° NNW 14:47:59 10° ENE
SMAP 3.2 14:33:03 10° NNE 14:37:44 79° ESE 14:42:23 10° S
MOS 1-B 4.4 14:32:34 10° NNE 14:38:23 88° ESE 14:44:10 10° SSW
NOSS 3-2 (C) 3.5 14:33:39 10° SSW 14:39:14 81° SE 14:45:42 10° NE
Cosmos 2237 Rocket 3.1 14:34:49 10° WSW 14:39:33 26° NW 14:44:20 10° N
FALCON 9 DEB 4.0 14:37:11 10° SW 14:40:10 44° SE 14:43:09 10° ENE
Cosmos 2219 Rocket 4.0 14:39:30 11° NW 14:40:31 11° NW 14:42:03 10° NNW
Cosmos 2150 Rocket 4.3 14:36:12 10° NNW 14:41:20 49° WSW 14:46:31 10° S
Meteor 1-11 4.3 14:36:04 10° NNW 14:41:29 53° W 14:46:53 10° S
Cosmos 2026 Rocket 4.1 14:35:23 10° NNW 14:41:35 56° W 14:47:47 10° SSW
BREEZE-M DEB (TANK) 3.1 14:38:57 10° SW 14:42:44 46° SSE 14:44:48 10° ENE
CZ-4B R/B 4.0 14:40:29 10° NNW 14:43:04 19° WNW 14:45:41 10° WSW
Cosmos 1400 Rocket 4.0 14:42:57 10° WSW 14:46:11 22° WNW 14:49:28 10° NNW
Cosmos 2292 Rocket 3.0 14:43:34 10° N 14:46:32 68° E 14:49:52 10° SSE
CORIOLIS 4.4 14:43:46 10° NNE 14:49:08 78° ESE 14:54:29 10° S
Cosmos 1939 Rocket 4.0 14:45:30 10° NNE 14:49:18 47° E 14:53:02 10° S
PSLV R/B 4.3 14:45:35 10° N 14:49:19 39° WNW 14:53:06 10° SW
SL-4 R/B 2.2 14:47:24 10° W 14:51:06 51° NNW 14:55:09 10° NE
PAYLOAD B 4.2 14:49:00 10° N 14:54:34 72° WNW 15:00:08 10° SSW
Cosmos 1758 Rocket 4.2 14:50:59 10° NNW 14:55:04 35° W 14:59:07 10° SSW
CENTAUR R/B 2.5 14:50:08 10° SW 14:56:01 78° NW 15:03:05 10° NE
Cosmos 1655 Rocket 4.3 14:50:08 10° N 14:56:25 77° E 15:02:43 10° SSE
Cosmos 2098 Rocket 3.9 14:54:48 10° NNW 15:00:21 43° W 15:04:48 10° SSW
Cosmos 1892 2.8 14:57:05 10° N 15:00:56 82° E 15:04:47 10° S
Cosmos 2297 4.3 14:59:54 10° NW 15:05:11 38° WSW 15:10:26 10° S
DMSP B5D2-2 4.1 15:00:32 10° S 15:05:46 71° WSW 15:11:04 10° NNW
Cosmos 2058 Rocket 3.1 15:01:41 10° S 15:06:05 88° WNW 15:10:32 10° N
Lacrosse 4 Rocket 2.7 15:04:18 10° W 15:07:43 23° NW 15:11:12 10° N
Radarsat Rocket 4.5 15:00:36 10° NNE 15:08:22 76° WNW 15:15:07 10° SSW
Cosmos 2058 3.7 15:04:58 10° N 15:09:02 55° E 15:13:02 10° SSE
CZ-4 R/B 3.7 15:06:08 10° NE 15:09:29 28° E 15:12:50 10° SSE
NOAA 11 4.2 15:04:03 10° N 15:09:31 75° WNW 15:14:56 10° SSW
Cosmos 1726 Rocket 3.8 15:07:04 10° SSW 15:11:13 47° WNW 15:15:24 10° N
FengYun 1-2 T 4.3 15:05:38 10° NNE 15:11:20 80° WNW 15:16:58 10° SSW
